Regional Weather Roundup
Issued by NWS Jackson, KY

Home | Current Version | Previous Version | Text Only | Print | Product List | Glossary Off
Versions: 1 2 3 4 5 6 7 8 9 10 11 12 13 14 15 16 17 18 19 20 21 22 23 24 25 26 27 28 29 30 31 32 33 34 35 36 37 38 39 40 41 42 43 44 45 46 47 48 49 50

000
ASUS43 KJKL 052110
RWRJKL

EAST KENTUCKY HOURLY WEATHER ROUNDUP
NATIONAL WEATHER SERVICE JACKSON KY
500 PM EDT SUN JUL 05 2015

NOTE: "FAIR" INDICATES FEW OR NO CLOUDS BELOW 12,000 FEET WITH
NO SIGNIFICANT WEATHER AND/OR OBSTRUCTIONS TO VISIBILITY.

* THESE REPORTS ARE NOT UNDER NWS QUALITY CONTROL AND MAY NOT
  REPORT WEATHER SUCH AS PRECIPITATION AND FOG.

KYZ079-080-083-085-087-088-110-112-115-119-120-052200
...EASTERN KENTUCKY...

CITY           SKY/WX    TMP DP  RH WIND       PRES   REMARKS
JACKSON        CLOUDY    73  68  84 CALM      30.07S
LONDON         CLOUDY    72  65  78 N5        30.08R
SOMERSET*      LGT RAIN  68  68 100 NW5       30.09R
MONTICELLO*    PTSUNNY   77  70  79 NW12      30.10S
MIDDLESBORO*   PTSUNNY   78  68  72 W6        30.05S
HARLAN APT*      N/A     73  64  73 N7        30.06S
HAZARD APT*    CLEAR     72  68  88 CALM      30.07F
BLACK MTN*       N/A     72  64  78 CALM        N/A
PIKEVILLE APT* PTSUNNY   70  66  88 NW6       30.07F THUNDER
BIG SANDY*     RAIN      72  70  94 NW3       30.06S
MOREHEAD APT*  RAIN      72  68  88 CALM      30.10S
$$

KYZ035-036-041-042-044-050-067-078-099-052200
...CENTRAL KENTUCKY...

CITY           SKY/WX    TMP DP  RH WIND       PRES   REMARKS
MT STERLING*   LGT RAIN  72  68  88 N5        30.09S
FLEMING/MASON* CLOUDY    72  68  88 N3        30.10
DANVILLE*      PTSUNNY   73  66  78 NE5       30.09S
RICHMOND*      PTSUNNY   73  68  83 N3        30.08S
LEXINGTON      CLOUDY    77  67  71 NE7       30.08F
FRANKFORT      CLOUDY    78  65  63 NW6       30.07F
$$

KYZ091>093-OHZ055-061-077-WVZ005-015-034-035-042-052200
...SOUTHERN OHIO/WEST VIRGINIA...

CITY           SKY/WX    TMP DP  RH WIND       PRES   REMARKS
COVINGTON      CLOUDY    78  57  48 CALM      30.09F
COLUMBUS       CLOUDY    77  64  64 NE5       30.08S
DAYTON         CLOUDY    78  62  57 NW6       30.10F
WILMINGTON     CLOUDY    75  62  64 NE5       30.09S
HUNTINGTON     CLOUDY    77  69  76 N5        30.05S
CHARLESTON     PTSUNNY   77  71  82 VRB3      30.04S
PINEVILLE*     PTSUNNY   78  74  90 MISG      30.09S
BECKLEY        MOSUNNY   75  66  73 SE14G25   30.11S
BLUEFIELD      MOSUNNY   78  67  68 E8        30.12F
$$

VAZ002-007-008-TNZ017-027-036-066-071-052200
...SOUTHWEST VIRGINIA/EAST TENNESSEE...

CITY           SKY/WX    TMP DP  RH WIND       PRES   REMARKS
WISE*          PTSUNNY   79  63  57 SW5       30.12S
JONESVILLE*      N/A    N/A N/A N/A MISG        N/A
ABINGDON*      LGT RAIN  76  70  80 N6        30.07S
BRISTOL        PTSUNNY   79  66  64 W5        30.05R THUNDER
KNOXVILLE      CLOUDY    74  67  78 SW8       30.05F
OAK RIDGE      PTSUNNY   77  67  71 VRB6      30.07R
CROSSVILLE     PTSUNNY   78  63  59 W15G23    30.11S
NASHVILLE      PTSUNNY   85  68  56 W8        30.06F
$$

...KEY TO REMARKS...
VSB - VISIBILITY IN MILES
WCI - WIND CHILL INDEX
HX  - HEAT INDEX

$$


USA.gov is the U.S. government's official web portal to all federal, state and local government web resources and services.